Flag for U.S.A. Weather past 2 weeks in Clearwater, Florida, U.S.A.

Now
77 °F

Clear.


Feels Like: 78 °F
Forecast: 78 / 84 °F
Wind: 6 mph from South

Location: St. Petersburg / Clearwater International Airport

Current Time: Aug 1, 2015 at 12:34:27 AM

Latest Report: Jul 31, 2015 at 11:53 PM


Visibility: 10 mi

Pressure: 29.98 "Hg

Humidity: 90%

Dew point: 74 °F

Location of ClearwaterLocation

Historic Weather in Clearwater — Graph

°F

Clearwater temperature yesterday

Maximum temperature yesterday: 86 °F (at 12:53 PM)
Minimum temperature yesterday: 76 °F (at 4:53 AM)
Average temperature yesterday: 80 °F

Past Weeks' High & Low Weather Summary

 TemperatureHumidityPressure
High90 °F (Jul 23, 11:53 AM)100% (Jul 24, 12:02 PM)30.07 "Hg (Jul 24, 12:02 PM)
Low74 °F (Jul 29, 2:00 PM)59% (Jul 19, 11:00 AM)29.85 "Hg (Jul 26, 5:53 AM)
Average81 °F85%29.97 "Hg
* Reported Jul 16 10:53 PM — Jul 31 10:53 PM, Clearwater, Weather by CustomWeather, © 2015

Note: Actual official high and low records may vary slightly from our data, if they occured in-between our weather recording intervals... More about our weather records

Advertising

Clearwater weather history for previous 24 hours

 ConditionsComfort  
Time TempWeatherWind HumidityBarometerVisibility
10:53 PM
Fri, Jul 31
78 °FPassing clouds.7 mph87%29.98 "Hg10 mi
9:53 PM78 °FPassing clouds.9 mph84%29.99 "Hg10 mi
8:53 PM79 °FMore clouds than sun.8 mph79%29.97 "Hg10 mi
7:53 PM79 °FPartly sunny.10 mph79%29.95 "Hg10 mi
6:53 PM79 °FLight rain. Cloudy.17 mph88%29.95 "Hg10 mi
5:53 PM80 °FCloudy.7 mph76%29.96 "Hg10 mi
4:53 PM85 °FScattered clouds.18 mph65%29.95 "Hg10 mi
3:53 PM85 °FPassing clouds.15 mph65%29.97 "Hg10 mi
2:53 PM83 °FOvercast.12 mph72%29.99 "Hg10 mi
1:53 PM79 °FMostly cloudy.14 mph77%30.00 "Hg10 mi
12:53 PM86 °FBroken clouds.15 mph63%30.00 "Hg10 mi
11:53 AM81 °FBroken clouds.16 mph77%30.01 "Hg10 mi
10:53 AM76 °FCloudy.7 mph94%30.00 "Hg10 mi
9:53 AM81 °FScattered clouds.8 mph79%30.00 "Hg10 mi
8:53 AM83 °FScattered clouds.9 mph79%29.99 "Hg10 mi
7:53 AM79 °FScattered clouds.5 mph90%29.98 "Hg10 mi
6:53 AM76 °FClear.6 mph94%29.96 "Hg10 mi
5:53 AM76 °FClear.No wind94%29.95 "Hg10 mi
4:53 AM76 °FClear.5 mph94%29.95 "Hg10 mi
3:53 AM77 °FPassing clouds.5 mph85%29.96 "Hg10 mi
2:53 AM78 °FClear.7 mph90%29.96 "Hg10 mi
1:53 AM78 °FPassing clouds.5 mph93%29.97 "Hg10 mi
12:53 AM78 °FPartly cloudy.5 mph93%29.99 "Hg10 mi
Weather by CustomWeather, © 2015

See weather overviewHow to use our weather pages